Location: Norton
(51.3000°N, 0.8167°E)
Time: 02:59:26
(UTC+00:00)

Landsat 7 - Pass Details

Date: 03 March 2021
Orbit: 701 x 703 km, 98.0° (Epoch: 13 April)

Event Time Altitude Azimuth Distance (km) Brightness Sun altitude
Exits shadow 20:17:04 48° 33° (NNE) 921 4.3 -24.7°
Drops below altitude 10° 20:20:56 10° 353° (N) 2,184 6.7 -25.3°
Sets 20:23:13 0° 349° (N) 3,106 7.6 -25.6°
